Key statistics
Satellite COSMOS 1408 at a glance.
Uptime
15382
Days in orbit
Revolutions
≈ 15.5
Per day
Orbit
LEO
Low Earth Orbit
Inclination
82.6
Latest
Satellite identification and parameters
Extended collection of information and parameters for COSMOS 1408.
Object identification
Identified? True
Debris? False
Object name: COSMOS 1408
International designator: 1982-092A
Object number (NORAD): 13552
Object ID (CCSDS): 13552
Country: COMMONWEALTH OF INDEPENDENT STATES (CIS)
Current information (Y/N): Y
RCS size: LARGE
Orbital parameters
Decay date: Oct. 27, 2024
Period: 92.705 minutes
Inclination: 82.5649 deg
SMA: 6785.199 km
Apoapsis: 420.883 km
Periapsis: 393.245 km
RAAN: 14.2516 deg
Eccentricy: 0.0020366
Argument of periapsis: 84.8007 deg
Mean anomaly: 275.557 deg
Mean motion: 15.53312629 rev/day
Mean motion (dot): 0.00039458 rev/day2
B* drag term: 0.00061783 1/REarth
Two-line elements (TLE)
Creation date: Feb. 12, 2024, 3:07 a.m.
Reference frame: TEME
Reference center: EARTH
Epoch: Feb. 11, 2024, 10:18 p.m. UTC
TLE line 0: 0 COSMOS 1408
TLE line 1: 1 13552U 82092A 24042.92972601 .00039458 00000-0 61783-3 0 9992
TLE line 2: 2 13552 82.5649 14.2516 0020366 84.8007 275.5570 15.53312629125810
Live tracking on map
Satellite COSMOS 1408 has decayed and is no longer in orbit. No tracking available.
In-orbit conjunctions
Satellite COSMOS 1408 has decayed and is no longer in orbit. No conjunctions available.
Associated space launch
Tselina-D satellites provided detailed observation of radio sources detected by the smaller Tselina-O satellites as part of the Tselina ELINT system.
COSMOS 1408 was lifted into orbit during the mission ‘Tsiklon-3 | Tselina-D 38’, on board a Tsiklon-3 space rocket.
The launch took place on Sept. 16, 1982, 4:55 a.m. from 32/2.
For more information about the launch, click the button.
Tsiklon-3 | Tselina-D 38
Agency: N/A
Status: Launch Successful
Launch date: Sept. 16, 1982, 4:55 a.m. UTC
Rocket: Tsiklon-3
Launch pad: 32/2
Location: Plesetsk Cosmodrome, Russian Federation
...
Latest news about this satellite
There are no fresh news available about this satellite. Check back as we update our databases every day.
Newsletter sign-up
Weekly statistics, charts and insights to help you stay on top of the space industry.
